Arrange by
Date
Date
Title
Job #
Location
Descending   Sign Up for Job Agent Sign-up for Job Agent Jobs through RSS RSS Feed
Date Title Job # Location
06/03/2020 IT/Field/TDR Technician : 20-01564 20-01564 Yonkers, New York
06/03/2020 Senior Full Stack Engineer : 20-01271 20-01271 Woodland Hills, California
06/03/2020 Accounting Manager IV : 20-01565 20-01565 Austin, Texas
06/03/2020 Contract Recruiter I : 20-01566 20-01566 Salt Lake City, Utah
06/03/2020 Linux/Windows Systems Administrator : 20-01530 20-01530 Basking Ridge, New Jersey
06/03/2020 Healthcare Project Manager : 20-01551 20-01551 Yonkers, New York
06/03/2020 Data/Business Analyst : 20-00048 20-01561 Ann Arbor, Michigan
06/03/2020 Civil Engineer : 20-01554 20-01554 Torrance, California
06/03/2020 IT - Administrative Assistant III : 20-01559 20-01559 Woodland Hills, California
06/03/2020 Network Security Palo Alto Contractor : 20-01560 20-01560 Tempe, Arizona
06/03/2020 Business Intelligence Engineer III : 20-01556 20-01556 Seattle, Washington
06/03/2020 UI Developer III - 629 : PRODUCT ENGINEERING - CROSS PRODUCT PLATFORM : 20-01555 20-01555 Sunnyvale, California
06/03/2020 Software Engineer I : 20-01558 20-01558 San Francisco, California
06/03/2020 Software QA Engineer : 20-00824 20-00824 Sunnyvale, California
06/03/2020 Business Intelligence Engineer II : 20-01549 20-01549 Virtual, Washington
06/03/2020 Senior Workforce Strategy Analyst : 20-01557 20-01557 Tempe, Arizona
06/02/2020 Technical Lead : 20-01402 20-01402 Bellevue, Washington
06/02/2020 Senior Architect Web : 20-01548 20-01548 San Jose, California
06/02/2020 Software Developer IV : 20-01546 20-01546 Hudson, Massachusetts
06/02/2020 Software Dev Engineer IV : 20-01552 20-01552 Kennesaw, Georgia
06/01/2020 Senior Business Intelligence Analyst : 20-00309 20-00309 Sunnyvale, California
06/01/2020 Software Developer III : 20-01545 20-01545 Hudson, Massachusetts
06/01/2020 Software Developer II : 20-01547 20-01547 Hudson, Massachusetts
06/01/2020 Senior Spark SQL Data Engineer : 20-01543 20-01543 San Jose, California
06/01/2020 Engineering Laboratory Technician III : 20-01544 20-01544 Santa Clara, California
06/01/2020 Cloud-Software Eng III (US) : 20-01540 20-01540 Research Triangle Park, North Carolina
06/01/2020 Accounting / Business Analyst IV : 20-01359 20-01359 Seattle, Washington
06/01/2020 Guidewire PolicyCenter Developer III : 20-01368 20-01368 Woodland Hills, California
06/01/2020 Accountant - Accounts Receivable Specialist : 20-01340 20-01340 Santa Clara, California
06/01/2020 Automation Engineer II : 20-01316 20-01316 Austin, Texas
Page:  1 2 3 4 Next     | 1 to 30 of 113 result(s)     records per page